[[{"header":{"parameterUnit":"m.s-1","parameterCategory":1,"la1":30.2991,"la2":30.254,"lo1":-89.0895,"lo2":-89.0444,"dy":0.0017,"dx":0.0017,"nx":28,"ny":28,"refTime":"2023-08-25T21:00:00:Z","depth":0,"parameterNumber":2,"parameterNumberName":"U-component_of_WINDS"},"data":[0,0,0,0,0,0,0,0,0,0,0,0,0,0,0,0,0,0,0,0,0,0,0,0,0,0,0,0,0,0,0,0,0,0,0,0,0,0,0,0,0,0,0,0,0,0,0,0,0,0,0,0,0,0,0,0,0,0,3.9483,3.9484,0,3.9614,3.9615,3.9616,3.9563,3.956,3.9557,3.9554,3.9689,3.9695,3.9702,0,0,0,0,0,0,0,0,0,0,0,0,0,3.9187,3.9193,3.9482,3.9484,3.9486,3.9613,3.9615,3.9617,3.9563,3.956,3.9556,3.9552,3.9687,3.9694,3.9702,0,0,0,0,0,0,0,0,0,0,0,0,0,3.9317,3.9195,3.9482,3.9474,3.9475,3.9613,3.9615,3.9617,3.9564,3.956,3.9555,3.9551,3.9684,3.9694,3.9703,3.9857,0,0,3.9733,3.9737,0,0,0,0,0,0,0,0,3.9309,3.9327,3.9474,3.9475,3.9476,3.9567,3.956,3.9698,3.9565,3.953,3.9554,3.9548,3.9652,3.9664,3.9699,3.9863,3.9869,3.9734,3.974,3.9744,3.9747,0,0,0,0,0,0,0,3.93,3.9321,3.9534,3.9476,3.9478,3.9465,3.9478,3.9586,3.9616,3.9533,3.953,3.9546,3.9652,3.969,3.9702,3.9871,3.9734,3.9742,3.9748,3.9752,4.0168,4.0173,0,0,0,0,0,0,3.9291,3.9314,3.953,3.9538,3.9379,3.9474,3.9489,3.9543,3.9615,3.9621,3.955,3.9543,3.9676,3.9691,3.9706,3.9891,3.9744,3.9753,3.9759,4.0163,4.0169,4.0175,0,0,0,0,0,0,3.9285,3.9311,3.9525,3.9425,3.9452,3.9484,3.9545,3.9548,3.9585,3.9627,3.9632,3.9583,3.9672,3.9693,3.982,3.9895,3.9758,3.9766,4.0157,4.0165,4.0172,4.0261,0,0,0,0,0,0,3.9277,3.9309,3.9367,3.9427,3.9457,3.9636,3.955,3.9554,3.9602,3.9595,3.966,3.9666,3.967,3.9806,3.983,3.9906,3.9774,4.015,4.016,4.0169,4.0252,4.0271,4.0288,0,0,0,0,0,3.9266,3.9387,3.9371,3.9397,3.9531,3.964,3.9658,3.966,3.9609,3.9668,3.9694,3.9664,3.9883,3.9819,3.9846,3.9926,4.0145,4.0157,4.0169,4.0244,4.0267,4.0287,0,0,0,0,0,0,3.9336,3.9395,3.9377,3.9521,3.9576,3.9631,3.9706,3.9685,3.9756,3.9746,3.9746,3.9761,3.9893,3.9922,3.985,4.0079,4.0006,4.0024,4.0054,4.0077,4.0095,4.0085,3.9782,0,0,0,0,0,3.9368,3.9452,3.9499,3.9622,3.965,3.9673,3.9721,3.9718,3.9775,3.9798,3.9834,3.9891,3.9973,4.0027,4.0104,4.0256,4.0269,4.0324,4.0342,4.0357,4.0372,4.0455,4.048,4.0213,4.0213,4.0213,0,0,3.9435,3.9478,3.9531,3.9637,3.9679,3.9766,3.9693,3.9788,3.9853,3.9813,3.9935,3.9964,4.0027,4.0167,4.0231,4.0196,4.0449,4.0372,4.0383,4.039,4.0469,4.0494,4.0517,4.0221,4.022,4.0218,0,0,3.9602,3.9643,3.9749,3.9793,3.9858,3.9873,3.9898,3.9957,3.9974,4.0097,4.0069,4.0146,4.0286,4.0333,4.0375,4.056,4.0534,4.0585,4.0679,4.076,4.0781,4.0799,4.0865,4.0889,4.06,4.06,4.0601,0,3.9677,3.9807,3.9807,3.9904,3.9952,3.9919,4.0027,4.007,4.0157,4.0191,4.0151,4.0327,4.0367,4.0518,4.0563,4.0598,4.0628,4.0577,4.0777,4.0796,4.0814,4.0876,4.0901,4.0606,4.0606,4.0605,4.0604,0,3.9896,3.9986,4.0065,4.0149,4.0206,4.0308,4.0324,4.0381,4.0374,4.0393,4.0518,4.0566,4.0652,4.0688,4.0682,4.0838,4.0815,4.0776,4.0704,4.0845,4.0904,4.0928,4.0614,4.0612,4.0611,4.0609,0,0,4.011,4.0193,4.0222,4.026,4.0329,4.0399,4.0501,4.0585,4.0634,4.0695,4.078,4.09,4.0865,4.0913,4.0912,4.0983,4.1126,4.0935,4.0937,4.0969,4.1301,4.1329,4.1357,4.111,4.1114,4.1118,4.1296,0,4.0282,4.0458,4.0462,4.0624,4.0708,4.0678,4.0766,4.0819,4.084,4.0914,4.0937,4.1022,4.0969,4.0998,4.1067,4.1094,4.1193,4.1081,4.1189,4.1193,4.1173,4.1388,4.1418,4.1584,4.1319,4.1323,4.1326,0,4.0506,4.0574,4.0745,4.0802,4.0837,4.0916,4.0994,4.1065,4.1124,4.1134,4.1188,4.1176,4.128,4.1205,4.1347,4.1272,4.1316,4.1336,4.1343,4.1352,4.1267,4.1403,4.1636,4.1661,4.1362,4.1359,4.1357,0,4.0644,4.0779,4.0898,4.0932,4.1002,4.1058,4.109,4.1144,4.1195,4.1263,4.1296,4.1375,4.1419,4.1481,4.1491,4.1435,4.1635,4.156,4.1646,4.1646,4.1689,4.1686,4.1932,4.1719,4.1718,4.1718,4.1717,0,4.0836,4.0941,4.0962,4.1035,4.1153,4.1155,4.1272,4.1299,4.1348,4.1426,4.1406,4.1481,4.149,4.1567,4.1576,4.1692,4.1713,4.1724,4.1725,4.1725,4.1724,4.1754,4.1743,4.1724,4.1723,4.1722,4.172,0,4.101,4.1028,4.1156,4.1212,4.1229,4.1313,4.1361,4.1431,4.145,4.1549,4.1573,4.1603,4.1692,4.1709,4.1815,4.182,4.196,4.195,4.194,4.1939,4.2023,4.2015,4.2297,4.2334,4.2097,4.2099,4.2101,0,4.1131,4.1212,4.1276,4.1327,4.1361,4.1444,4.1495,4.1501,4.1556,4.1629,4.1691,4.1778,4.1848,4.1993,4.2024,4.2105,4.2096,4.2189,4.2108,4.2106,4.2097,4.2092,4.21,4.2205,4.2207,4.221,4.2211,0,4.1344,4.1349,4.1423,4.1501,4.1563,4.1625,4.1684,4.1727,4.174,4.1803,4.1894,4.1948,4.2056,4.2143,4.2224,4.2257,4.2237,4.2237,4.2261,4.2262,4.2253,4.2259,4.1982,4.223,4.2228,4.2227,4.2226,4.2225,4.1495,4.1565,4.1621,4.1705,4.175,4.1805,4.1874,4.1901,4.1977,4.2065,4.2064,4.2164,4.2221,4.2327,4.2365,4.2444,4.2414,4.2449,4.2458,4.2466,4.2474,4.2241,4.2459,4.2458,4.2458,4.2457,4.2457,0,4.1706,4.1741,4.1818,4.19,4.1966,4.1941,4.2005,4.2062,4.215,4.2205,4.2274,4.2379,4.2463,4.2501,4.2584,4.264,4.2633,4.2661,4.2657,4.2665,4.2496,4.2467,4.2666,4.2666,4.2665,4.2665,4.2665,4.2665,4.1824,4.1941,4.1953,4.2092,4.2126,4.2223,4.2261,4.2312,4.2356,4.2473,4.2543,4.2567,4.2615,4.2702,4.2778,4.2787,4.2819,4.2852,4.2857,4.2698,4.2677,4.2657,4.2629,4.2859,4.2859,4.3019,4.302,4.3021]},{"header":{"parameterUnit":"m.s-1","parameterCategory":1,"la1":30.2991,"la2":30.254,"lo1":-89.0895,"lo2":-89.0444,"dy":0.0017,"dx":0.0017,"nx":28,"ny":28,"refTime":"2023-08-25T21:00:00:Z","depth":0,"parameterNumber":3,"parameterNumberName":"V-component_of_WINDS"},"data":[0,0,0,0,0,0,0,0,0,0,0,0,0,0,0,0,0,0,0,0,0,0,0,0,0,0,0,0,0,0,0,0,0,0,0,0,0,0,0,0,0,0,0,0,0,0,0,0,0,0,0,0,0,0,0,0,0,0,-1.008,-1.008,0,-1.0106,-1.0107,-1.0107,-1.0123,-1.0123,-1.0123,-1.0123,-1.015,-1.015,-1.0151,0,0,0,0,0,0,0,0,0,0,0,0,0,-1.0042,-1.0043,-1.008,-1.008,-1.008,-1.0106,-1.0107,-1.0107,-1.0123,-1.0123,-1.0123,-1.0123,-1.015,-1.015,-1.0151,0,0,0,0,0,0,0,0,0,0,0,0,0,-1.0063,-1.0043,-1.008,-1.0091,-1.0093,-1.0106,-1.0107,-1.0107,-1.0123,-1.0123,-1.0123,-1.0123,-1.0149,-1.015,-1.0151,-1.0155,0,0,-1.0154,-1.0155,0,0,0,0,0,0,0,0,-1.0062,-1.0064,-1.0089,-1.0091,-1.0092,-1.0112,-1.0103,-1.0123,-1.0123,-1.0111,-1.0123,-1.0123,-1.0137,-1.0139,-1.0144,-1.0156,-1.0157,-1.0154,-1.0155,-1.0155,-1.0155,0,0,0,0,0,0,0,-1.006,-1.0063,-1.009,-1.009,-1.0091,-1.0095,-1.0098,-1.0107,-1.0123,-1.0112,-1.0114,-1.0117,-1.0138,-1.0143,-1.0144,-1.0158,-1.0154,-1.0155,-1.0156,-1.0156,-1.0175,-1.0175,0,0,0,0,0,0,-1.0057,-1.0062,-1.0089,-1.0091,-1.0077,-1.0096,-1.0099,-1.0105,-1.0123,-1.0126,-1.0117,-1.0117,-1.0141,-1.0143,-1.0145,-1.0151,-1.0155,-1.0156,-1.0157,-1.0175,-1.0175,-1.0175,0,0,0,0,0,0,-1.0056,-1.0059,-1.0088,-1.0077,-1.0081,-1.0096,-1.0103,-1.0106,-1.0111,-1.0126,-1.0129,-1.0119,-1.0141,-1.0144,-1.0153,-1.0152,-1.0157,-1.0157,-1.0175,-1.0175,-1.0175,-1.0162,0,0,0,0,0,0,-1.0055,-1.0059,-1.006,-1.0077,-1.0081,-1.0095,-1.0103,-1.0106,-1.0112,-1.0114,-1.0129,-1.0132,-1.0141,-1.0151,-1.0153,-1.0154,-1.0158,-1.0175,-1.0175,-1.0175,-1.0163,-1.0162,-1.0161,0,0,0,0,0,-1.0053,-1.0055,-1.006,-1.0063,-1.0083,-1.0095,-1.0098,-1.0109,-1.0112,-1.0114,-1.0124,-1.0131,-1.0152,-1.0152,-1.0155,-1.0155,-1.0175,-1.0175,-1.0175,-1.0163,-1.0162,-1.0161,0,0,0,0,0,0,-1.0038,-1.0058,-1.0063,-1.0071,-1.0081,-1.0098,-1.01,-1.0107,-1.0117,-1.0117,-1.0131,-1.0134,-1.0142,-1.0149,-1.0149,-1.016,-1.0164,-1.0165,-1.0155,-1.0154,-1.0153,-1.0151,-1.0159,0,0,0,0,0,-1.0036,-1.0043,-1.006,-1.0065,-1.007,-1.0084,-1.0089,-1.0097,-1.0109,-1.0113,-1.0124,-1.0134,-1.0143,-1.0149,-1.0158,-1.0164,-1.0168,-1.0166,-1.0165,-1.0164,-1.0164,-1.0169,-1.0168,-1.0174,-1.0174,-1.0174,0,0,-1.003,-1.0042,-1.0046,-1.0062,-1.0071,-1.0079,-1.0087,-1.0095,-1.0101,-1.0114,-1.0123,-1.0131,-1.0144,-1.0152,-1.0155,-1.0158,-1.0164,-1.0164,-1.0163,-1.0164,-1.0169,-1.0168,-1.0168,-1.0174,-1.0174,-1.0174,0,0,-1.0025,-1.0034,-1.004,-1.0049,-1.0062,-1.0072,-1.0073,-1.0089,-1.0095,-1.0104,-1.0115,-1.0122,-1.0137,-1.0146,-1.0152,-1.0151,-1.0158,-1.0153,-1.0148,-1.0153,-1.0152,-1.0152,-1.0152,-1.0152,-1.0154,-1.0154,-1.0154,0,-1.0016,-1.0029,-1.0041,-1.0049,-1.0056,-1.0068,-1.0074,-1.0082,-1.0098,-1.0102,-1.0105,-1.0125,-1.0134,-1.0144,-1.0144,-1.0149,-1.0151,-1.0152,-1.0151,-1.0151,-1.0151,-1.0151,-1.0151,-1.0153,-1.0153,-1.0153,-1.0153,0,-1.0018,-1.0026,-1.0029,-1.0044,-1.0052,-1.0058,-1.0072,-1.0078,-1.0085,-1.0094,-1.0104,-1.0116,-1.0128,-1.0131,-1.0138,-1.0142,-1.0144,-1.0149,-1.0154,-1.015,-1.015,-1.015,-1.0152,-1.0152,-1.0152,-1.0153,0,0,-1.0003,-1.0026,-1.0027,-1.0034,-1.0051,-1.0057,-1.0065,-1.0077,-1.0082,-1.0092,-1.0099,-1.0112,-1.0117,-1.0124,-1.0133,-1.0136,-1.0135,-1.0141,-1.0142,-1.014,-1.0141,-1.0137,-1.0137,-1.014,-1.014,-1.014,-1.014,0,-1.0,-1.0014,-1.0026,-1.0035,-1.0043,-1.0055,-1.0062,-1.0073,-1.0082,-1.009,-1.01,-1.0109,-1.0115,-1.012,-1.0124,-1.0134,-1.0136,-1.0135,-1.0146,-1.0147,-1.0143,-1.0137,-1.0133,-1.0132,-1.014,-1.014,-1.014,0,-0.9998,-1.0009,-1.0019,-1.0035,-1.0039,-1.0045,-1.0057,-1.0065,-1.0078,-1.0084,-1.0093,-1.0102,-1.011,-1.0114,-1.0126,-1.0125,-1.0131,-1.0137,-1.0137,-1.0139,-1.0143,-1.0139,-1.0132,-1.0132,-1.0141,-1.0141,-1.0141,0,-0.9986,-1.0003,-1.0012,-1.0018,-1.0037,-1.0041,-1.0049,-1.0062,-1.0068,-1.0079,-1.0084,-1.0096,-1.0102,-1.0111,-1.0123,-1.0125,-1.0134,-1.0139,-1.014,-1.0139,-1.0141,-1.0141,-1.0135,-1.0144,-1.0144,-1.0144,-1.0144,0,-0.9982,-0.9988,-1.0007,-1.0012,-1.0019,-1.0033,-1.004,-1.0049,-1.006,-1.0068,-1.0079,-1.0086,-1.0102,-1.011,-1.012,-1.0129,-1.0131,-1.0137,-1.0139,-1.0136,-1.0135,-1.014,-1.014,-1.0144,-1.0144,-1.0144,-1.0144,0,-0.997,-0.9983,-0.9993,-1.0011,-1.0015,-1.002,-1.0035,-1.0041,-1.0051,-1.006,-1.0063,-1.0078,-1.0089,-1.0102,-1.0117,-1.0124,-1.0132,-1.0135,-1.0128,-1.0129,-1.0129,-1.0129,-1.0126,-1.0127,-1.0135,-1.0135,-1.0135,0,-0.9966,-0.9971,-0.9989,-0.9995,-1.0003,-1.0012,-1.002,-1.0034,-1.0041,-1.0056,-1.006,-1.0072,-1.0082,-1.0099,-1.0111,-1.0123,-1.0127,-1.0126,-1.0129,-1.0126,-1.0128,-1.0127,-1.0128,-1.0125,-1.0124,-1.0124,-1.0124,0,-0.9958,-0.9965,-0.9975,-0.9987,-0.9995,-1.0006,-1.0016,-1.0021,-1.0037,-1.0044,-1.0056,-1.0064,-1.0079,-1.0091,-1.0105,-1.0113,-1.0122,-1.0123,-1.0124,-1.012,-1.0116,-1.0119,-1.0125,-1.0123,-1.0123,-1.0123,-1.0123,-1.0123,-0.995,-0.9956,-0.9969,-0.998,-0.999,-1.0,-1.0006,-1.0018,-1.0027,-1.0041,-1.0049,-1.006,-1.0074,-1.0093,-1.0101,-1.0111,-1.0113,-1.0115,-1.0115,-1.0115,-1.0114,-1.0114,-1.0113,-1.0113,-1.0113,-1.0113,-1.0113,0,-0.9943,-0.9953,-0.9963,-0.9978,-0.9987,-0.9994,-1.0007,-1.0013,-1.0023,-1.0035,-1.0045,-1.0059,-1.007,-1.0084,-1.0097,-1.0102,-1.0106,-1.0105,-1.0104,-1.0106,-1.0111,-1.0109,-1.0101,-1.0101,-1.0101,-1.0101,-1.0101,-1.0101,-0.9941,-0.995,-0.9958,-0.9972,-0.9982,-0.9993,-1.0,-1.001,-1.0019,-1.0034,-1.0044,-1.0053,-1.0066,-1.008,-1.0091,-1.0095,-1.0099,-1.0097,-1.0102,-1.0105,-1.0106,-1.0107,-1.0105,-1.0097,-1.0097,-1.0097,-1.0097,-1.0097]}]]